Date String (YYYY-MM-DD hh:mm:ss) UTC,Instrument flags,absolute air pressure of the measurement (hPa),sample flow rate (lpm),inlet stack bypass flow (lpm),air temperature of the measurement (°C),ambient temperature measured by the external sensor (°C),aerosol sample conditioner tube jacket temperature (°C),OPC LED temperature (°C),internal box temperature (°C),relative humidity of the measurement (%),span deviation,mass concentration of particles derived from Lorenz-Mie calculation of OPC scattering (μg/m³),mass concentration of particles derived from Lorenz-Mie calculation of OPC scattering (μg/m³),mass concentration of particles derived from Lorenz-Mie calculation of OPC scattering (μg/m³)
DateTimeUTC,F1_M11,P_M11,Q1_M11,Q2_M11,T1_M11,T2_M11,T3_M11,T4_M11,T5_M11,U1_M11,ZSPAN_M11,X0_M11,X2_M11,X1_M11
2024-06-13 03:00:00,SystemResetWarning,0829.7,4.98,000.00,028.9,027.5,000.0,037.3,030.5,020.2,0000.0,0010.44,0004.61,0003.71
2024-06-13 03:01:00,SystemResetWarning,0829.7,4.99,000.00,029.0,027.8,000.0,037.3,030.7,020.0,0000.0,0012.23,0004.60,0003.70
2024-06-13 03:02:00,SystemResetWarning,0829.8,5.00,000.00,029.1,028.1,000.0,037.3,030.8,019.8,0000.0,0012.39,0004.56,0003.69
2024-06-13 03:03:00,SystemResetWarning,0829.8,5.00,000.00,029.1,028.3,000.0,037.3,031.0,019.6,0000.0,0013.33,0004.53,0003.69
2024-06-13 03:04:00,SystemResetWarning,0829.8,5.01,000.00,029.2,028.5,000.0,037.3,031.1,019.5,0000.0,0013.22,0004.55,0003.71
2024-06-13 03:05:00,SystemResetWarning,0829.8,5.01,000.00,029.3,028.7,000.0,037.3,031.2,019.4,0000.0,0012.93,0004.54,0003.71
2024-06-13 03:06:00,SystemResetWarning,0829.8,5.00,000.00,029.4,028.9,000.0,037.4,031.2,019.2,0000.0,0013.06,0004.53,0003.72
2024-06-13 03:07:00,SystemResetWarning,0829.8,5.00,000.00,029.5,029.0,000.0,037.4,031.3,018.9,0000.0,0013.09,0004.53,0003.73
2024-06-13 03:08:00,SystemResetWarning,0829.8,4.99,000.00,029.5,029.1,000.0,037.5,031.4,018.8,0000.0,0013.02,0004.52,0003.73
2024-06-13 03:09:00,SystemResetWarning,0829.8,4.98,000.00,029.4,027.6,000.0,037.6,030.6,018.8,0000.0,0012.55,0004.51,0003.74
2024-06-13 03:10:00,SystemResetWarning,0829.7,5.03,000.00,029.1,026.4,000.0,037.6,030.0,019.2,0000.0,0013.22,0004.49,0003.75
2024-06-13 03:11:00,SystemResetWarning,0829.8,5.00,000.00,029.0,026.7,000.0,037.6,030.1,019.3,0000.0,0013.39,0004.49,0003.77
2024-06-13 03:12:00,SystemResetWarning,0829.8,5.00,000.00,029.0,027.1,000.0,037.5,030.3,019.1,0000.0,0012.08,0004.48,0003.77
2024-06-13 03:13:00,SystemResetWarning,0829.8,5.00,000.00,029.0,027.4,000.0,037.4,030.6,019.1,0000.0,0011.81,0004.51,0003.77
2024-06-13 03:14:00,SystemResetWarning,0829.8,5.00,000.00,029.1,027.8,000.0,037.4,030.8,019.0,0000.0,0010.90,0004.51,0003.76
2024-06-13 03:15:00,SystemResetWarning,0829.8,5.00,000.00,029.2,028.1,000.0,037.4,030.9,019.0,0000.0,0011.05,0004.51,0003.75
2024-06-13 03:16:00,SystemResetWarning,0829.8,5.00,000.00,029.2,028.3,000.0,037.4,031.0,018.9,0000.0,0011.69,0004.52,0003.73
2024-06-13 03:17:00,SystemResetWarning,0829.8,5.00,000.00,029.3,028.6,000.0,037.4,031.1,018.8,0000.0,0012.51,0004.52,0003.71
2024-06-13 03:18:00,SystemResetWarning,0829.9,5.00,000.00,029.4,028.8,000.0,037.4,031.2,018.6,0000.0,0013.19,0004.53,0003.70
2024-06-13 03:19:00,SystemResetWarning,0829.9,5.00,000.00,029.5,028.9,000.0,037.5,031.3,018.7,0000.0,0014.37,0004.55,0003.70
2024-06-13 03:20:00,SystemResetWarning,0829.9,5.00,000.00,029.5,029.0,000.0,037.5,031.4,018.7,0000.0,0014.80,0004.54,0003.69
2024-06-13 03:21:00,SystemResetWarning,0829.9,5.00,000.00,029.6,029.0,000.0,037.6,031.4,018.2,0000.0,0014.51,0004.56,0003.67
2024-06-13 03:22:00,SystemResetWarning,0829.8,4.98,000.00,029.4,027.2,000.0,037.6,030.5,018.5,0000.0,0014.42,0004.56,0003.66
2024-06-13 03:23:00,SystemResetWarning,0829.8,5.01,000.00,029.0,025.3,000.0,037.6,029.6,018.9,0000.0,0014.10,0004.55,0003.66
2024-06-13 03:24:00,SystemResetWarning,0829.7,5.01,000.00,028.8,025.6,000.0,037.6,029.5,019.4,0000.0,0014.15,0004.56,0003.66
2024-06-13 03:25:00,SystemResetWarning,0829.7,5.00,000.00,028.7,026.1,000.0,037.5,029.8,019.3,0000.0,0014.08,0004.60,0003.68
2024-06-13 03:26:00,SystemResetWarning,0829.7,5.00,000.00,028.7,026.6,000.0,037.4,030.1,019.2,0000.0,0013.67,0004.59,0003.67
2024-06-13 03:27:00,SystemResetWarning,0829.8,5.00,000.00,028.8,027.0,000.0,037.3,030.3,019.3,0000.0,0012.82,0004.57,0003.68
2024-06-13 03:28:00,SystemResetWarning,0829.8,5.00,000.00,028.8,027.4,000.0,037.3,030.5,019.3,0000.0,0012.10,0004.60,0003.69
2024-06-13 03:29:00,SystemResetWarning,0829.8,5.00,000.00,028.9,027.7,000.0,037.3,030.6,019.1,0000.0,0011.53,0004.60,0003.69
2024-06-13 03:30:00,SystemResetWarning,0829.8,5.00,000.00,029.0,028.0,000.0,037.3,030.7,019.1,0000.0,0011.32,0004.58,0003.68
2024-06-13 03:31:00,SystemResetWarning,0829.8,5.00,000.00,029.0,028.3,000.0,037.3,030.8,019.1,0000.0,0011.92,0004.58,0003.69
2024-06-13 03:32:00,SystemResetWarning,0829.9,4.99,000.00,029.1,028.5,000.0,037.3,030.9,019.1,0000.0,0011.87,0004.53,0003.69
2024-06-13 03:33:00,SystemResetWarning,0829.9,5.00,000.00,029.2,028.6,000.0,037.3,031.1,019.0,0000.0,0011.49,0004.53,0003.70
2024-06-13 03:34:00,SystemResetWarning,0829.9,5.00,000.00,029.3,028.8,000.0,037.3,031.1,019.0,0000.0,0011.64,0004.52,0003.70
2024-06-13 03:35:00,SystemResetWarning,0830.0,5.01,000.00,029.4,028.9,000.0,037.4,031.2,018.8,0000.0,0011.48,0004.47,0003.69
2024-06-13 03:36:00,SystemResetWarning,0830.0,5.01,000.00,029.4,029.0,000.0,037.4,031.3,018.8,0000.0,0011.49,0004.43,0003.67
2024-06-13 03:37:00,SystemResetWarning,0830.1,5.00,000.00,029.5,029.1,000.0,037.4,031.4,018.7,0000.0,0011.62,0004.40,0003.67
2024-06-13 03:38:00,SystemResetWarning,0830.0,5.00,000.00,029.6,029.1,000.0,037.5,031.4,018.6,0000.0,0011.98,0004.38,0003.67
2024-06-13 03:39:00,SystemResetWarning,0829.9,4.98,000.00,029.4,027.5,000.0,037.6,030.6,018.8,0000.0,0011.70,0004.35,0003.66
2024-06-13 03:40:00,SystemResetWarning,0829.9,5.02,000.00,029.1,026.5,000.0,037.6,030.1,019.2,0000.0,0011.51,0004.33,0003.66
2024-06-13 03:41:00,SystemResetWarning,0830.0,4.99,000.00,029.0,026.8,000.0,037.6,030.2,019.3,0000.0,0011.07,0004.29,0003.67
2024-06-13 03:42:00,SystemResetWarning,0830.0,4.99,000.00,029.0,027.1,000.0,037.5,030.4,019.3,0000.0,0009.87,0004.27,0003.68
2024-06-13 03:43:00,SystemResetWarning,0830.0,4.99,000.00,029.1,027.5,000.0,037.4,030.6,019.3,0000.0,0009.20,0004.25,0003.69
2024-06-13 03:44:00,SystemResetWarning,0830.0,5.01,000.00,029.1,027.8,000.0,037.4,030.8,019.3,0000.0,0010.17,0004.22,0003.68
2024-06-13 03:45:00,SystemResetWarning,0830.1,5.01,000.00,029.2,028.1,000.0,037.4,030.9,019.1,0000.0,0009.78,0004.21,0003.68
2024-06-13 03:46:00,SystemResetWarning,0830.1,5.00,000.00,029.2,028.4,000.0,037.4,031.0,019.2,0000.0,0010.50,0004.26,0003.69
2024-06-13 03:47:00,SystemResetWarning,0830.1,5.00,000.00,029.3,028.6,000.0,037.4,031.1,019.2,0000.0,0010.97,0004.31,0003.71
2024-06-13 03:48:00,SystemResetWarning,0830.1,4.99,000.00,029.4,028.7,000.0,037.5,031.2,019.0,0000.0,0010.90,0004.31,0003.71
2024-06-13 03:49:00,SystemResetWarning,0830.1,5.00,000.00,029.5,028.9,000.0,037.5,031.3,018.9,0000.0,0010.65,0004.30,0003.70
2024-06-13 03:50:00,SystemResetWarning,0830.1,5.00,000.00,029.5,029.0,000.0,037.5,031.4,018.8,0000.0,0011.10,0004.29,0003.70
2024-06-13 03:51:00,SystemResetWarning,0830.1,5.00,000.00,029.6,029.2,000.0,037.6,031.4,018.8,0000.0,0011.13,0004.29,0003.70
2024-06-13 03:52:00,SystemResetWarning,0830.2,5.00,000.00,029.7,029.1,000.0,037.6,031.4,018.7,0000.0,0011.18,0004.31,0003.69
2024-06-13 03:53:00,SystemResetWarning,0830.1,4.99,000.00,029.4,027.0,000.0,037.7,030.4,018.9,0000.0,0011.93,0004.32,0003.68
2024-06-13 03:54:00,SystemResetWarning,0830.1,5.01,000.00,029.1,026.4,000.0,037.7,030.1,019.2,0000.0,0012.45,0004.37,0003.68
2024-06-13 03:55:00,SystemResetWarning,0830.1,5.01,000.00,029.1,026.8,000.0,037.7,030.2,019.3,0000.0,0011.95,0004.41,0003.68
2024-06-13 03:56:00,SystemResetWarning,0830.1,4.99,000.00,029.1,027.1,000.0,037.6,030.4,019.4,0000.0,0012.66,0004.39,0003.67
2024-06-13 03:57:00,SystemResetWarning,0830.1,5.00,000.00,029.1,027.5,000.0,037.5,030.6,019.3,0000.0,0012.05,0004.37,0003.66
2024-06-13 03:58:00,SystemResetWarning,0830.1,5.01,000.00,029.2,027.9,000.0,037.5,030.8,019.1,0000.0,0011.68,0004.32,0003.65
2024-06-13 03:59:00,SystemResetWarning,0830.1,5.00,000.00,029.2,028.1,000.0,037.5,030.9,019.0,0000.0,0011.80,0004.29,0003.65
